Location: Le Pont-de-Coulogne
(50.9242°N, 1.8700°E)
Time: 19:54:25
(UTC+00:00)

COSMOS 2428 - Pass Details

Date: 15 May 2026
Orbit: 844 x 855 km, 70.9° (Epoch: 6 June)

Event Time Altitude Azimuth Distance (km) Brightness Sun altitude
Rises 22:48:56 0° 329° (NNW) 3,426 7.3 -18.8°
Reaches altitude 10° 22:51:24 10° 328° (NNW) 2,485 6.2 -18.9°
Maximum altitude 22:57:06 77° 243° (WSW) 873 2.7 -19.1°
Enters shadow 22:59:33 35° 164° (SSE) 1,328 3.2 -19.2°
